{"data":{"norad_id":60544,"epoch":"2026-09-22T08:10:20.145216Z","epoch_age_seconds":130007,"freshness":"FRESH","line1":"1 60544U 24149CE  26265.34051094  .00000603  00000+0  64294-4 0  9993","line2":"2 60544  97.6694 335.7720 0005238 102.3673 257.8133 14.92390012114342","mean_motion":14.92390012,"eccentricity":0.0005238,"inclination_deg":97.6694,"raan_deg":335.772,"arg_perigee_deg":102.3673,"mean_anomaly_deg":257.8133,"bstar":6.4294e-5,"rev_number":11434,"period_min":96.489522740119,"perigee_km":586.8355487798,"apogee_km":594.13587793431,"semimajor_km":6968.6227133571,"source":"CELESTRAK","updated_at":"2026-09-23T09:00:20.672249Z"}}